Powrót do katalogu

SL-8 R/B

AktywnyLEO
NORAD 11051·ROCKET BODY·🇷🇺 Russia

Wystrzelony Oct 4, 1978 z Plesetsk Cosmodrome

Loading…

Następne Przeloty (najbliższe 24 godziny)

TLE

ŚwieżeSource: Space-Track

Epoka: Sep 14, 2026, 10:02 UTC

1 11051U 78091J   26257.41815361 -.00000081  00000-0 -62410-3 0  9991
2 11051  74.0418  40.4411 0136498 189.1868 198.4633 12.20473583136302

Śledź SL-8 R/B w czasie rzeczywistym z AllMySat

Download on the App Store